SCP
0 0 0 0 0 0 0 0 0 0 0 0 0 0 0 0 0 0 0 0 0 0
0 0 0 0 0 0 0 0 0 0 0 0 0 0 0 0 0 0 0 0 0 0
0 0 0 0 0 0 0 0 0 0 0 0 0 0 0 0 0 0 0 0 0 0
0 0 0 0 0 0 0 0 0 0 0 0 0 0 0 0 0 0 0 -0 0 0
0 0 0 0 0 0 0 0 0 0 0 0 0 0 0 0 0 0 0 0 -0 0
0 0 0 0 0 0 0 0 0 0 0 0 0 0 0 0 0 -0 -0 0 0 0
0 0 0 0 0 0 0 0 0 0 0 0 0 0 0 0 -0 -0 0 0 0 0
0 0 0 0 0 0 0 0 0 0 0 0 0 0 0 0 0 0 0 0 0 0
0 0 0 0 0 0 0 0 0 0 0 0 0 0 0 0 0 0 0 0 0 0
0 0 0 0 0 0 0 0 0 0 0 0 0 0 0 0 0 0 0 0 0 0
0 0 0 0 0 -0 0 -0 -0 -0 -0 -0 -0 0 -0 0 0 0 0 0 0 0
0 -0 0 0 0 0 0 0 0 0 -0 -0 0 0 0 -0 -0 -0 -0 -0 -0 0
-0 0 -0 -0 0 -0 0 0 -0 -0 0 -0 -0 -0 -0 -0 -0 -0 0 -0 0 -0
0 0 0 0 0 0 0 0 -0 -0 -0 -0 -0 -0 -0 -0 0 -0 -0 -0 0 0
Wind_Speed_500mb
32 39 36 28 26 28 30 32 38 43 46 48 46 43 39 39 42 48 51 51 44 52
28 29 30 39 43 42 38 32 31 35 37 39 43 43 48 58 61 63 50 47 50 52
39 37 35 37 41 45 46 45 49 45 41 37 43 45 47 51 53 56 54 55 56 57
48 44 47 45 41 47 52 50 44 50 46 56 53 51 53 55 57 60 62 62 52 61
54 48 47 46 42 40 42 49 53 54 52 48 49 55 55 53 52 54 62 68 56 64
64 64 64 54 52 56 52 52 52 48 47 50 50 46 45 46 57 62 62 66 50 52
53 47 48 53 53 60 48 39 44 48 47 42 44 47 51 55 62 62 58 51 41 40
57 54 48 50 44 41 42 52 45 41 43 39 46 51 57 63 63 46 37 38 32 11
54 44 35 36 34 34 32 30 35 34 43 41 48 60 63 48 39 33 35 29 11 5
36 33 31 28 32 20 22 31 39 46 53 52 48 42 37 32 32 30 19 25 16 18
29 24 23 29 36 32 28 32 36 41 41 35 30 32 31 26 22 15 26 25 17 20
18 18 19 20 19 18 20 23 23 23 20 21 23 21 21 14 21 31 25 34 29 26
13 13 14 14 15 21 18 19 22 20 14 15 14 10 2 26 33 40 36 24 31 23
13 12 12 11 12 14 13 12 12 16 25 28 29 32 36 41 44 33 35 28 21 21
Wind_Direction_500mb
328 316 305 295 302 291 270 265 271 275 281 286 290 296 301 315 322 324 319 312 314 311
299 293 300 300 289 279 273 270 269 275 282 284 290 297 300 307 311 309 311 313 312 306
304 294 290 288 288 286 283 271 274 266 276 285 300 296 306 315 314 309 309 309 309 307
293 293 289 290 288 282 278 270 259 277 269 281 272 281 299 306 310 311 310 318 304 306
294 287 284 278 280 284 283 283 282 277 266 269 279 284 288 299 302 306 313 314 302 306
303 297 283 276 278 276 276 276 276 277 281 284 283 282 284 291 300 304 306 312 302 304
307 308 300 298 279 264 271 278 272 269 270 274 277 279 286 296 304 306 305 301 299 297
303 298 304 294 295 279 273 269 276 273 273 274 278 290 295 296 303 304 296 297 295 290
295 306 305 306 308 283 273 273 277 276 277 292 298 294 296 298 292 285 284 278 195 77
309 307 298 304 283 324 300 276 295 297 299 295 295 293 290 287 289 284 259 178 141 86
320 310 312 296 311 311 307 304 303 300 298 294 289 289 291 290 286 197 170 156 134 88
317 323 326 323 315 313 312 309 303 305 320 306 300 304 297 275 194 172 155 146 126 91
10 0 341 345 347 324 310 289 307 324 356 7 12 23 161 160 157 136 119 108 112 116
14 15 355 360 5 10 354 31 55 72 81 79 85 96 106 111 111 111 119 111 115 104
Wind_Speed_850mb
32 39 36 28 26 28 30 32 38 43 46 48 46 43 39 39 42 48 51 51 44 52
28 29 30 39 43 42 38 32 31 35 37 39 43 43 48 58 61 63 50 47 50 52
39 37 35 37 41 45 46 45 49 45 41 37 43 45 47 51 53 56 54 55 56 57
48 44 47 45 41 47 52 50 44 50 46 56 53 51 53 55 57 60 62 62 52 61
54 48 47 46 42 40 42 49 53 54 52 48 49 55 55 53 52 54 62 68 56 64
64 64 64 54 52 56 52 52 52 48 47 50 50 46 45 46 57 62 62 66 50 52
53 47 48 53 53 60 48 39 44 48 47 42 44 47 51 55 62 62 58 51 41 40
57 54 48 50 44 41 42 52 45 41 43 39 46 51 57 63 63 46 37 38 32 11
54 44 35 36 34 34 32 30 35 34 43 41 48 60 63 48 39 33 35 29 11 5
36 33 31 28 32 20 22 31 39 46 53 52 48 42 37 32 32 30 19 25 16 18
29 24 23 29 36 32 28 32 36 41 41 35 30 32 31 26 22 15 26 25 17 20
18 18 19 20 19 18 20 23 23 23 20 21 23 21 21 14 21 31 25 34 29 26
13 13 14 14 15 21 18 19 22 20 14 15 14 10 2 26 33 40 36 24 31 23
13 12 12 11 12 14 13 12 12 16 25 28 29 32 36 41 44 33 35 28 21 21
Wind_Direction_850mb
328 316 305 295 302 291 270 265 271 275 281 286 290 296 301 315 322 324 319 312 314 311
299 293 300 300 289 279 273 270 269 275 282 284 290 297 300 307 311 309 311 313 312 306
304 294 290 288 288 286 283 271 274 266 276 285 300 296 306 315 314 309 309 309 309 307
293 293 289 290 288 282 278 270 259 277 269 281 272 281 299 306 310 311 310 318 304 306
294 287 284 278 280 284 283 283 282 277 266 269 279 284 288 299 302 306 313 314 302 306
303 297 283 276 278 276 276 276 276 277 281 284 283 282 284 291 300 304 306 312 302 304
307 308 300 298 279 264 271 278 272 269 270 274 277 279 286 296 304 306 305 301 299 297
303 298 304 294 295 279 273 269 276 273 273 274 278 290 295 296 303 304 296 297 295 290
295 306 305 306 308 283 273 273 277 276 277 292 298 294 296 298 292 285 284 278 195 77
309 307 298 304 283 324 300 276 295 297 299 295 295 293 290 287 289 284 259 178 141 86
320 310 312 296 311 311 307 304 303 300 298 294 289 289 291 290 286 197 170 156 134 88
317 323 326 323 315 313 312 309 303 305 320 306 300 304 297 275 194 172 155 146 126 91
10 0 341 345 347 324 310 289 307 324 356 7 12 23 161 160 157 136 119 108 112 116
14 15 355 360 5 10 354 31 55 72 81 79 85 96 106 111 111 111 119 111 115 104